Weather History for Swansboro, NC

Change the Weather History Date:

Sunday, January 13, 2013

  Actual Average (KNKT) Record (KNKT)
Temperature  
Mean Temperature 60 °F -  
Max Temperature 66 °F 53 °F 75 °F (2005)
Min Temperature 53 °F 32 °F 24 °F (2011)
Degree Days  
Heating Degree Days 6    
Growing Degree Days 10 (Base 50)    
Moisture  
Dew Point 57 °F    
Average Humidity 92    
Maximum Humidity 100    
Minimum Humidity 75    
Precipitation  
Precipitation 0.01 in - - ()
Sea Level Pressure  
Sea Level Pressure 30.16 in    
Wind  
Wind Speed 2 mph (South)    
Max Wind Speed 7 mph    
Max Gust Speed -    
Visibility 6 miles    
Events Fog    
Averages and records for this station are not official NWS values.
T = Trace of Precipitation, MM = Missing Value Source: NWS Daily Summary

Daily Weather History Graph

Daily Weather History Graph

Search for Another Location

Airport:

Trip Planner

Search our weather history database for the weather conditions in past years. The results will help you decide how hot, cold, wet, or windy it might be!

Date:

Astronomy

Jan. 13, 2013 Rise Set
Actual Time 7:15 AM EST 5:18 PM EST
Civil Twilight 6:47 AM EST 5:46 PM EST
Nautical Twilight 6:16 AM EST 6:17 PM EST
Astronomical Twilight 5:46 AM EST 6:47 PM EST
Moon 8:19 AM EST (1/13) 7:47 PM EST (1/13)
Length of Visible Light 10h 58m
Length of Day
10h 03m
Waxing Crescent, 5% of the Moon is Illuminated
Jan 13
Waxing Crescent
Jan 18
First Quarter
Jan 26
Full
Feb 3
Last Quarter
Feb 10
New

Hourly Weather History & Observations

Time (EST) Temp. Dew Point Humidity Pressure Visibility Wind Dir Wind Speed Gust Speed Precip Events Conditions
1:57 AM 55.9 °F 55.0 °F 97% 30.15 in 0.2 mi East 3.5 mph - N/A Fog Fog
2:43 AM 55.4 °F 55.4 °F 100% 30.14 in 0.2 mi Calm Calm - N/A Fog Fog
2:57 AM 55.9 °F 55.0 °F 97% 30.15 in 0.2 mi ENE 3.5 mph - 0.01 in Fog Fog
4:27 AM 55.4 °F 55.4 °F 100% 30.13 in 0.2 mi NE 3.5 mph - N/A Fog Fog
4:57 AM 55.0 °F 55.0 °F 100% 30.15 in 0.5 mi Calm Calm - N/A Fog Fog
5:25 AM 53.6 °F 53.6 °F 100% 30.13 in 0.5 mi Calm Calm - N/A Fog Fog
5:52 AM 53.6 °F 53.6 °F 100% 30.14 in 0.2 mi Calm Calm - N/A Fog Fog
5:57 AM 54.0 °F 53.1 °F 97% 30.15 in 0.5 mi Calm Calm - N/A Fog Fog
6:57 AM 53.1 °F 53.1 °F 100% 30.16 in 0.2 mi Calm Calm - N/A Fog Fog
7:57 AM 55.0 °F 54.0 °F 96% 30.18 in 0.2 mi Calm Calm - N/A Fog Fog
8:20 AM 55.4 °F 55.4 °F 100% 30.18 in 0.5 mi Calm Calm - N/A Fog Fog
9:33 AM 59.0 °F 59.0 °F 100% 30.19 in 3.0 mi Calm Calm - N/A   Mostly Cloudy
9:57 AM 61.0 °F 60.1 °F 97% 30.20 in 9.0 mi Calm Calm - N/A   Partly Cloudy
10:57 AM 64.0 °F 59.0 °F 84% 30.19 in 10.0 mi Calm Calm - N/A   Clear
11:57 AM 66.0 °F 59.0 °F 78% 30.17 in 10.0 mi SSW 4.6 mph - N/A   Clear
12:57 PM 66.0 °F 59.0 °F 78% 30.14 in 10.0 mi Variable 4.6 mph - N/A   Mostly Cloudy
1:57 PM 66.0 °F 57.9 °F 75% 30.13 in 10.0 mi SSE 5.8 mph - N/A   Clear
2:57 PM 64.0 °F 57.9 °F 80% 30.14 in 10.0 mi SSW 5.8 mph - N/A   Clear
3:57 PM 63.0 °F 57.9 °F 84% 30.15 in 10.0 mi South 3.5 mph - N/A   Clear
4:57 PM 61.0 °F 57.0 °F 87% 30.16 in 10.0 mi SSW 4.6 mph - N/A   Clear
5:57 PM 61.0 °F 57.9 °F 90% 30.17 in 10.0 mi South 4.6 mph - N/A   Partly Cloudy
6:57 PM 57.9 °F 55.9 °F 93% 30.16 in 10.0 mi SW 3.5 mph - N/A   Clear
7:57 PM 59.0 °F 57.0 °F 93% 30.14 in 10.0 mi SSW 3.5 mph - N/A   Clear
8:57 PM 61.0 °F 59.0 °F 93% 30.14 in 10.0 mi SSW 6.9 mph - N/A   Clear
9:57 PM 62.1 °F 60.1 °F 93% 30.15 in 10.0 mi Variable 3.5 mph - N/A   Overcast
10:57 PM 62.1 °F 59.0 °F 90% 30.18 in 10.0 mi WSW 3.5 mph - N/A   Overcast
11:57 PM 60.1 °F 57.9 °F 93% 30.18 in 10.0 mi SW 4.6 mph - N/A   Partly Cloudy